Location: Cantaing
(50.1487°N, 3.1675°E)
Time: 09:37:20
(UTC+00:00)

CZ-4C R/B - Pass Details

Date: 14 January 2026
Orbit: 482 x 1496 km, 63.4° (Epoch: 18 February)

Event Time Altitude Azimuth Distance (km) Brightness Sun altitude
Exits shadow 04:04:14 23° 12° (NNE) 1,848 4.1 -34.0°
Drops below altitude 10° 04:08:01 10° 44° (NE) 2,809 5.4 -33.4°
Sets 04:11:34 0° 57° (ENE) 3,964 6.5 -32.8°
